Location: Svitavy
(49.7500°N, 16.4667°E)
Time: 16:54:20
(UTC+01:00)

ISS - Pass Details

Date: 22 January 2020
Orbit: 415 x 422 km, 51.6° (Epoch: 26 February)

Event Time Altitude Azimuth Distance (km) Brightness Sun altitude
Rises 18:18:38 0° 217° (SW) 2,368 0.8 -16.9°
Reaches altitude 10° 18:20:54 10° 206° (SSW) 1,506 -0.5 -17.3°
Enters shadow 18:23:49 28° 146° (SE) 832 -2.5 -17.8°
